When you browse on this site, cookies collect data to enhance your experience and personalize the content and advertising you see.
Visit our Privacy Policy to learn more. By continuing to use the site, you agree to this use of cookies and data.
  • In Hungary
  • List of Countries
  • For 7 days
  • Water Temperature
  • Weather Map
  • News
  • Weather Widgets
  • user-avatar
    Login

    Hourly Weather Kamenno-Andrianovo

    Today, 19 October, Saturday

    Time Temperature Precipitation Wind Pressure Humidity
    00:00 +15°C° 0 mm 2 mps 761 mmHg 78%
    01:00 +14°C° 0 mm 2 mps 761 mmHg 78%
    02:00 +14°C° 0 mm 2 mps 761 mmHg 77%
    03:00 +13°C° 0 mm 1 mps 761 mmHg 73%
    04:00 +13°C° 0 mm 1 mps 762 mmHg 73%
    05:00 +12°C° 0 mm 1 mps 762 mmHg 73%
    06:00 +12°C° 0 mm 1 mps 762 mmHg 73%
    07:00 +13°C° 0 mm 1 mps 762 mmHg 69%
    08:00 +14°C° 0 mm 2 mps 762 mmHg 65%
    09:00 +16°C° 0 mm 2 mps 763 mmHg 60%
    10:00 +17°C° 0 mm 2 mps 763 mmHg 55%
    11:00 +18°C° 0 mm 2 mps 763 mmHg 50%
    12:00 +20°C° 0 mm 2 mps 763 mmHg 45%
    13:00 +21°C° 0 mm 2 mps 763 mmHg 43%
    14:00 +21°C° 0 mm 2 mps 763 mmHg 40%
    15:00 +23°C° 0 mm 2 mps 762 mmHg 38%
    16:00 +21°C° 0 mm 2 mps 763 mmHg 42%
    17:00 +19°C° 0 mm 2 mps 763 mmHg 46%
    18:00 +18°C° 0 mm 2 mps 763 mmHg 50%
    19:00 +18°C° 0 mm 2 mps 763 mmHg 52%
    20:00 +17°C° 0 mm 2 mps 763 mmHg 55%
    21:00 +16°C° 0 mm 2 mps 764 mmHg 58%
    22:00 +16°C° 0 mm 2 mps 764 mmHg 60%
    23:00 +15°C° 0 mm 2 mps 764 mmHg 61%

    Tomorrow, 20 October, Sunday

    Time Temperature Precipitation Wind Pressure Humidity
    00:00 +15°C° 0 mm 2 mps 764 mmHg 63%
    01:00 +14°C° 0 mm 2 mps 764 mmHg 65%
    02:00 +14°C° 0 mm 2 mps 764 mmHg 67%
    03:00 +14°C° 0 mm 2 mps 764 mmHg 68%
    04:00 +12°C° 0 mm 3 mps 765 mmHg 69%
    05:00 +12°C° 0 mm 3 mps 765 mmHg 70%
    06:00 +12°C° 0 mm 3 mps 765 mmHg 72%
    07:00 +13°C° 0 mm 3 mps 765 mmHg 68%
    08:00 +14°C° 0 mm 3 mps 765 mmHg 64%
    09:00 +16°C° 0 mm 3 mps 766 mmHg 61%
    10:00 +17°C° 0 mm 3 mps 765 mmHg 56%
    11:00 +19°C° 0 mm 4 mps 765 mmHg 51%
    12:00 +21°C° 0 mm 4 mps 765 mmHg 45%
    13:00 +21°C° 0 mm 4 mps 765 mmHg 44%
    14:00 +22°C° 0 mm 4 mps 765 mmHg 43%
    15:00 +22°C° 0 mm 4 mps 765 mmHg 41%
    16:00 +21°C° 0 mm 3 mps 765 mmHg 46%
    17:00 +20°C° 0 mm 3 mps 765 mmHg 50%
    18:00 +19°C° 0 mm 3 mps 765 mmHg 54%
    19:00 +18°C° 0 mm 3 mps 765 mmHg 56%
    20:00 +17°C° 0 mm 3 mps 766 mmHg 58%
    21:00 +17°C° 0 mm 4 mps 766 mmHg 61%
    22:00 +16°C° 0 mm 3 mps 766 mmHg 63%
    23:00 +16°C° 0 mm 3 mps 766 mmHg 64%

    Day after tomorrow, 21 October, Monday

    Time Temperature Precipitation Wind Pressure Humidity
    00:00 +14°C° 0 mm 3 mps 766 mmHg 66%
    01:00 +14°C° 0 mm 3 mps 766 mmHg 68%
    02:00 +13°C° 0 mm 3 mps 766 mmHg 70%
    03:00 +13°C° 0 mm 3 mps 766 mmHg 71%
    04:00 +12°C° 0 mm 3 mps 766 mmHg 73%
    05:00 +12°C° 0 mm 3 mps 766 mmHg 75%
    06:00 +12°C° 0 mm 3 mps 766 mmHg 77%
    07:00 +12°C° 0 mm 4 mps 766 mmHg 74%
    08:00 +13°C° 0 mm 4 mps 767 mmHg 71%
    09:00 +14°C° 0 mm 4 mps 767 mmHg 68%
    10:00 +17°C° 0 mm 4 mps 767 mmHg 62%
    11:00 +19°C° 0 mm 4 mps 767 mmHg 55%
    12:00 +20°C° 0 mm 4 mps 766 mmHg 48%
    13:00 +21°C° 0 mm 4 mps 766 mmHg 47%
    14:00 +21°C° 0 mm 4 mps 766 mmHg 45%
    15:00 +21°C° 0 mm 4 mps 766 mmHg 44%
    16:00 +20°C° 0 mm 3 mps 766 mmHg 48%
    17:00 +19°C° 0 mm 3 mps 766 mmHg 52%
    18:00 +18°C° 0 mm 3 mps 765 mmHg 56%
    19:00 +17°C° 0 mm 3 mps 766 mmHg 58%
    20:00 +16°C° 0 mm 3 mps 766 mmHg 59%
    21:00 +16°C° 0 mm 3 mps 766 mmHg 61%
    22:00 +14°C° 0 mm 3 mps 766 mmHg 63%
    23:00 +15°C° 0 mm 2 mps 766 mmHg 65%

    22 October, Tuesday

    Time Temperature Precipitation Wind Pressure Humidity
    00:00 +14°C° 0 mm 2 mps 766 mmHg 68%
    01:00 +14°C° 0 mm 2 mps 766 mmHg 69%
    02:00 +13°C° 0 mm 2 mps 766 mmHg 71%
    03:00 +13°C° 0 mm 2 mps 766 mmHg 73%
    04:00 +13°C° 0 mm 2 mps 766 mmHg 73%
    05:00 +12°C° 0 mm 2 mps 766 mmHg 74%
    06:00 +12°C° 0 mm 2 mps 766 mmHg 75%
    07:00 +13°C° 0 mm 2 mps 766 mmHg 70%
    08:00 +14°C° 0 mm 2 mps 766 mmHg 66%
    09:00 +15°C° 0 mm 2 mps 766 mmHg 62%
    10:00 +16°C° 0 mm 2 mps 766 mmHg 56%
    11:00 +18°C° 0 mm 2 mps 766 mmHg 51%
    12:00 +19°C° 0 mm 2 mps 766 mmHg 45%
    13:00 +21°C° 0 mm 1 mps 766 mmHg 43%
    14:00 +22°C° 0 mm 1 mps 766 mmHg 41%
    15:00 +22°C° 0 mm 1 mps 766 mmHg 39%
    16:00 +21°C° 0 mm 1 mps 765 mmHg 42%
    17:00 +20°C° 0 mm 1 mps 765 mmHg 45%
    18:00 +19°C° 0 mm 1 mps 765 mmHg 48%
    19:00 +19°C° 0 mm 1 mps 765 mmHg 49%
    20:00 +18°C° 0 mm 1 mps 765 mmHg 51%
    21:00 +18°C° 0 mm 1 mps 765 mmHg 52%
    22:00 +15°C° 0 mm 0 mps 765 mmHg 53%
    23:00 +15°C° 0 mm 0 mps 766 mmHg 55%

    23 October, Wednesday

    Time Temperature Precipitation Wind Pressure Humidity
    00:00 +14°C° 0 mm 0 mps 766 mmHg 56%
    01:00 +14°C° 0 mm 0 mps 766 mmHg 57%
    02:00 +14°C° 0 mm 0 mps 766 mmHg 58%
    03:00 +14°C° 0 mm 0 mps 766 mmHg 59%
    04:00 +13°C° 0 mm 0 mps 766 mmHg 59%
    05:00 +13°C° 0 mm 0 mps 766 mmHg 60%
    06:00 +13°C° 0 mm 0 mps 766 mmHg 61%
    07:00 +14°C° 0 mm 0 mps 766 mmHg 59%
    08:00 +15°C° 0 mm 0 mps 766 mmHg 56%
    09:00 +16°C° 0 mm 0 mps 766 mmHg 53%
    10:00 +17°C° 0 mm 0 mps 766 mmHg 49%
    11:00 +19°C° 0 mm 0 mps 766 mmHg 45%
    12:00 +20°C° 0 mm 0 mps 766 mmHg 42%
    13:00 +22°C° 0 mm 1 mps 766 mmHg 40%
    14:00 +23°C° 0 mm 1 mps 765 mmHg 39%
    15:00 +23°C° 0 mm 1 mps 765 mmHg 38%
    16:00 +22°C° 0 mm 1 mps 765 mmHg 41%
    17:00 +19°C° 0 mm 0 mps 765 mmHg 44%
    18:00 +18°C° 0 mm 0 mps 765 mmHg 47%
    19:00 +20°C° 0 mm 1 mps 765 mmHg 49%
    20:00 +19°C° 0 mm 1 mps 765 mmHg 52%
    21:00 +18°C° 0 mm 1 mps 765 mmHg 54%
    22:00 +18°C° 0 mm 1 mps 765 mmHg 56%
    23:00 +16°C° 0 mm 1 mps 765 mmHg 58%

    24 October, Thursday

    Time Temperature Precipitation Wind Pressure Humidity
    00:00 +16°C° 0 mm 1 mps 765 mmHg 60%
    01:00 +16°C° 0 mm 1 mps 765 mmHg 61%
    02:00 +15°C° 0 mm 1 mps 765 mmHg 62%
    03:00 +15°C° 0 mm 1 mps 765 mmHg 63%
    04:00 +14°C° 0 mm 1 mps 765 mmHg 65%
    05:00 +14°C° 0 mm 1 mps 765 mmHg 66%
    06:00 +14°C° 0 mm 1 mps 765 mmHg 67%
    07:00 +15°C° 0 mm 1 mps 765 mmHg 64%
    08:00 +16°C° 0 mm 1 mps 765 mmHg 61%
    09:00 +18°C° 0 mm 1 mps 765 mmHg 58%
    10:00 +19°C° 0 mm 1 mps 765 mmHg 53%
    11:00 +20°C° 0 mm 1 mps 765 mmHg 49%
    12:00 +22°C° 0 mm 1 mps 765 mmHg 44%
    13:00 +22°C° 0 mm 1 mps 765 mmHg 42%
    14:00 +23°C° 0 mm 1 mps 764 mmHg 41%
    15:00 +23°C° 0 mm 1 mps 764 mmHg 39%
    16:00 +22°C° 0 mm 1 mps 764 mmHg 42%
    17:00 +21°C° 0 mm 1 mps 764 mmHg 44%
    18:00 +20°C° 0 mm 1 mps 764 mmHg 47%
    19:00 +19°C° 0 mm 1 mps 764 mmHg 49%
    20:00 +19°C° 0 mm 1 mps 764 mmHg 51%
    21:00 +17°C° 0 mm 2 mps 764 mmHg 52%
    22:00 +18°C° 0 mm 1 mps 764 mmHg 53%
    23:00 +16°C° 0 mm 1 mps 764 mmHg 55%
    Show more